When you browse on this site, cookies collect data to enhance your experience and personalize the content and advertising you see.
Visit our Privacy Policy to learn more. By continuing to use the site, you agree to this use of cookies and data.
  • în România
  • Lista ţărilor
  • Pe 7 zile
  • Temperatura apei
  • Hartă satelitară
  • Meteo pe hartă
  • Widget-uri
  • user-avatar
    Intrare

    Meteo pe oră la Arpino

    Astăzi, 22 Aprilie, Luni

    Timp Temperatura Precipitaţii Vânt Presiune Umiditate
    00:00 +13°C° 0 mm 2 m/s 723 mmHg 63%
    01:00 +13°C° 0 mm 2 m/s 722 mmHg 61%
    02:00 +13°C° 0 mm 2 m/s 722 mmHg 59%
    03:00 +11°C° 0 mm 3 m/s 721 mmHg 57%
    04:00 +11°C° 0 mm 3 m/s 720 mmHg 55%
    05:00 +12°C° 0 mm 3 m/s 720 mmHg 58%
    06:00 +12°C° 0 mm 3 m/s 720 mmHg 60%
    07:00 +13°C° 0 mm 3 m/s 720 mmHg 62%
    08:00 +17°C° 0 mm 3 m/s 719 mmHg 57%
    09:00 +19°C° 0 mm 4 m/s 719 mmHg 51%
    10:00 +21°C° 0 mm 4 m/s 719 mmHg 45%
    11:00 +21°C° 0.1 mm 4 m/s 719 mmHg 50%
    12:00 +20°C° 0.1 mm 4 m/s 718 mmHg 54%
    13:00 +19°C° 0.1 mm 4 m/s 718 mmHg 58%
    14:00 +18°C° 1 mm 3 m/s 717 mmHg 67%
    15:00 +17°C° 1 mm 3 m/s 717 mmHg 75%
    16:00 +16°C° 1 mm 2 m/s 716 mmHg 84%
    17:00 +15°C° 0.7 mm 2 m/s 715 mmHg 85%
    18:00 +15°C° 0.7 mm 2 m/s 715 mmHg 87%
    19:00 +14°C° 0.7 mm 2 m/s 714 mmHg 89%
    20:00 +14°C° 0.2 mm 2 m/s 714 mmHg 90%
    21:00 +14°C° 0.2 mm 2 m/s 714 mmHg 90%
    22:00 +13°C° 0.2 mm 2 m/s 714 mmHg 91%
    23:00 +13°C° 0 mm 2 m/s 714 mmHg 91%

    Mâine, 23 Aprilie, Marţi

    Timp Temperatura Precipitaţii Vânt Presiune Umiditate
    00:00 +12°C° 0 mm 2 m/s 714 mmHg 92%
    01:00 +12°C° 0 mm 2 m/s 714 mmHg 92%
    02:00 +12°C° 0 mm 2 m/s 714 mmHg 92%
    03:00 +12°C° 0 mm 2 m/s 714 mmHg 92%
    04:00 +13°C° 0 mm 2 m/s 714 mmHg 92%
    05:00 +13°C° 0.1 mm 2 m/s 714 mmHg 92%
    06:00 +13°C° 0.1 mm 2 m/s 714 mmHg 92%
    07:00 +13°C° 0.1 mm 2 m/s 714 mmHg 92%
    08:00 +13°C° 0.3 mm 3 m/s 715 mmHg 93%
    09:00 +13°C° 0.3 mm 3 m/s 716 mmHg 93%
    10:00 +13°C° 0.3 mm 3 m/s 716 mmHg 94%
    11:00 +14°C° 0.6 mm 3 m/s 716 mmHg 91%
    12:00 +14°C° 0.6 mm 3 m/s 717 mmHg 89%
    13:00 +15°C° 0.6 mm 4 m/s 717 mmHg 87%
    14:00 +14°C° 0.5 mm 3 m/s 717 mmHg 86%
    15:00 +14°C° 0.5 mm 3 m/s 717 mmHg 85%
    16:00 +14°C° 0.5 mm 3 m/s 718 mmHg 85%
    17:00 +13°C° 0.1 mm 3 m/s 718 mmHg 88%
    18:00 +14°C° 0.1 mm 2 m/s 718 mmHg 92%
    19:00 +13°C° 0.1 mm 2 m/s 719 mmHg 96%
    20:00 +13°C° 0 mm 2 m/s 720 mmHg 96%
    21:00 +12°C° 0 mm 1 m/s 720 mmHg 97%
    22:00 +12°C° 0 mm 1 m/s 721 mmHg 97%
    23:00 +12°C° 0 mm 1 m/s 721 mmHg 97%

    Poimâine, 24 Aprilie, Miercuri

    Timp Temperatura Precipitaţii Vânt Presiune Umiditate
    00:00 +12°C° 0 mm 1 m/s 722 mmHg 96%
    01:00 +12°C° 0 mm 1 m/s 722 mmHg 96%
    02:00 +12°C° 0 mm 1 m/s 722 mmHg 94%
    03:00 +11°C° 0 mm 1 m/s 722 mmHg 93%
    04:00 +11°C° 0 mm 1 m/s 722 mmHg 91%
    05:00 +12°C° 0 mm 1 m/s 722 mmHg 86%
    06:00 +14°C° 0 mm 1 m/s 723 mmHg 82%
    07:00 +15°C° 0 mm 1 m/s 723 mmHg 77%
    08:00 +18°C° 0 mm 1 m/s 723 mmHg 68%
    09:00 +20°C° 0 mm 1 m/s 724 mmHg 58%
    10:00 +23°C° 0 mm 1 m/s 724 mmHg 48%
    11:00 +24°C° 0 mm 2 m/s 724 mmHg 46%
    12:00 +24°C° 0 mm 2 m/s 724 mmHg 44%
    13:00 +25°C° 0 mm 2 m/s 724 mmHg 41%
    14:00 +25°C° 0 mm 2 m/s 724 mmHg 41%
    15:00 +25°C° 0 mm 2 m/s 724 mmHg 42%
    16:00 +25°C° 0 mm 1 m/s 723 mmHg 42%
    17:00 +23°C° 0 mm 1 m/s 723 mmHg 47%
    18:00 +21°C° 0 mm 1 m/s 723 mmHg 52%
    19:00 +18°C° 0 mm 2 m/s 723 mmHg 58%
    20:00 +17°C° 0 mm 2 m/s 723 mmHg 61%
    21:00 +17°C° 0 mm 2 m/s 723 mmHg 64%
    22:00 +16°C° 0 mm 2 m/s 724 mmHg 67%
    23:00 +17°C° 0 mm 2 m/s 723 mmHg 64%

    25 Aprilie, Joi

    Timp Temperatura Precipitaţii Vânt Presiune Umiditate
    00:00 +17°C° 0 mm 2 m/s 723 mmHg 61%
    01:00 +17°C° 0 mm 2 m/s 723 mmHg 58%
    02:00 +18°C° 0 mm 1 m/s 723 mmHg 57%
    03:00 +16°C° 0 mm 1 m/s 723 mmHg 57%
    04:00 +16°C° 0 mm 1 m/s 723 mmHg 56%
    05:00 +18°C° 0.1 mm 1 m/s 723 mmHg 59%
    06:00 +18°C° 0.1 mm 1 m/s 723 mmHg 62%
    07:00 +19°C° 0.1 mm 1 m/s 724 mmHg 65%
    08:00 +21°C° 0 mm 1 m/s 724 mmHg 61%
    09:00 +22°C° 0 mm 1 m/s 724 mmHg 58%
    10:00 +24°C° 0 mm 1 m/s 725 mmHg 54%
    11:00 +24°C° 0 mm 2 m/s 725 mmHg 55%
    12:00 +24°C° 0 mm 2 m/s 725 mmHg 56%
    13:00 +25°C° 0 mm 3 m/s 725 mmHg 57%
    14:00 +25°C° 0.4 mm 2 m/s 724 mmHg 58%
    15:00 +24°C° 0.4 mm 2 m/s 724 mmHg 59%
    16:00 +24°C° 0.4 mm 2 m/s 724 mmHg 61%
    17:00 +21°C° 0.1 mm 2 m/s 724 mmHg 70%
    18:00 +20°C° 0.1 mm 1 m/s 724 mmHg 79%
    19:00 +18°C° 0.1 mm 1 m/s 724 mmHg 89%
    20:00 +16°C° 0 mm 1 m/s 724 mmHg 89%
    21:00 +16°C° 0 mm 1 m/s 724 mmHg 90%
    22:00 +15°C° 0 mm 1 m/s 725 mmHg 90%
    23:00 +15°C° 0 mm 1 m/s 725 mmHg 89%

    26 Aprilie, Vineri

    Timp Temperatura Precipitaţii Vânt Presiune Umiditate
    00:00 +14°C° 0 mm 1 m/s 725 mmHg 87%
    01:00 +13°C° 0 mm 0 m/s 725 mmHg 86%
    02:00 +14°C° 0 mm 1 m/s 725 mmHg 86%
    03:00 +14°C° 0 mm 1 m/s 725 mmHg 86%
    04:00 +13°C° 0 mm 1 m/s 725 mmHg 86%
    05:00 +14°C° 0 mm 1 m/s 725 mmHg 84%
    06:00 +16°C° 0 mm 1 m/s 725 mmHg 81%
    07:00 +18°C° 0 mm 1 m/s 725 mmHg 79%
    08:00 +19°C° 0 mm 1 m/s 726 mmHg 70%
    09:00 +19°C° 0 mm 2 m/s 726 mmHg 61%
    10:00 +21°C° 0 mm 3 m/s 726 mmHg 53%
    11:00 +21°C° 0 mm 3 m/s 726 mmHg 51%
    12:00 +21°C° 0 mm 3 m/s 726 mmHg 49%
    13:00 +22°C° 0 mm 3 m/s 726 mmHg 46%
    14:00 +21°C° 0 mm 4 m/s 726 mmHg 49%
    15:00 +20°C° 0 mm 4 m/s 726 mmHg 52%
    16:00 +20°C° 0 mm 4 m/s 725 mmHg 55%
    17:00 +18°C° 0 mm 4 m/s 725 mmHg 62%
    18:00 +16°C° 0 mm 3 m/s 725 mmHg 70%
    19:00 +14°C° 0 mm 2 m/s 725 mmHg 78%
    20:00 +12°C° 0 mm 2 m/s 725 mmHg 82%
    21:00 +11°C° 0 mm 1 m/s 725 mmHg 87%
    22:00 +10°C° 0 mm 1 m/s 726 mmHg 92%
    23:00 +10°C° 0 mm 1 m/s 725 mmHg 90%

    27 Aprilie, Sâmbătă

    Timp Temperatura Precipitaţii Vânt Presiune Umiditate
    00:00 +10°C° 0 mm 1 m/s 725 mmHg 89%
    01:00 +9°C° 0 mm 1 m/s 725 mmHg 88%
    02:00 +9°C° 0 mm 1 m/s 725 mmHg 83%
    03:00 +8°C° 0 mm 2 m/s 725 mmHg 78%
    04:00 +8°C° 0 mm 2 m/s 725 mmHg 73%
    05:00 +9°C° 0 mm 2 m/s 725 mmHg 70%
    06:00 +12°C° 0 mm 2 m/s 725 mmHg 66%
    07:00 +13°C° 0 mm 2 m/s 726 mmHg 63%
    08:00 +14°C° 0 mm 2 m/s 726 mmHg 58%
    09:00 +16°C° 0 mm 3 m/s 726 mmHg 53%
    10:00 +17°C° 0 mm 3 m/s 727 mmHg 48%
    11:00 +18°C° 0.2 mm 4 m/s 727 mmHg 49%
    12:00 +18°C° 0.2 mm 4 m/s 727 mmHg 50%
    13:00 +18°C° 0.2 mm 4 m/s 727 mmHg 51%
    14:00 +18°C° 0.4 mm 4 m/s 727 mmHg 51%
    15:00 +18°C° 0.4 mm 4 m/s 727 mmHg 52%
    16:00 +18°C° 0.4 mm 3 m/s 727 mmHg 52%
    17:00 +16°C° 0 mm 3 m/s 727 mmHg 58%
    18:00 +14°C° 0 mm 2 m/s 727 mmHg 63%
    19:00 +12°C° 0 mm 2 m/s 727 mmHg 69%
    20:00 +12°C° 0 mm 2 m/s 727 mmHg 69%
    21:00 +10°C° 0 mm 2 m/s 728 mmHg 70%
    22:00 +9°C° 0 mm 2 m/s 728 mmHg 70%
    23:00 +9°C° 0 mm 2 m/s 728 mmHg 68%
    Arată mai mult